Zurück zum Katalog

STARLINK-36650

AktivKommunikationVLEO
NORAD 67836·PAYLOAD·🇺🇸 United States

Gestartet Feb 16, 2026 von Vandenberg Space Force Base

Loading…

Nächste Überflüge (nächste 24 Stunden)

TLE

AktuellSource: CelesTrak SupGP

Epoche: Sep 15, 2026, 04:07 UTC

1 67836C 26033R   26258.17201389 -.00023036  00000+0 -83411-3 0  2581
2 67836  43.0021 277.1443 0001498 268.8348 348.9169 15.27598878    12

Verfolge STARLINK-36650 in Echtzeit mit AllMySat

Download on the App Store